User: anonymous   Login
Location: Unspecified
(0.0000°N, 0.0000°E)
Time: 21:56:01
(UTC+02:00)
Language:

Cosmos 2279 Rocket - Orbit

View from above orbital plane
View from above orbital plane
View from above satellite
View from above satellite

Ground track
Ground track

The orbit data is extracted from the following two-line orbital elements,

1 23093U 94024B   16238.85856105 +.00000029 +00000-0 +13955-4 0  9992
2 23093 082.9502 334.1372 0011473 110.2080 250.0312 13.77702054590526
Epoch (UTC): 25 August 2016 20:36:19
Eccentricity: 0.0011473
inclination: 82.9502°
perigee height: 963 km
apogee height: 980 km
right ascension of ascending node: 334.1372°
argument of perigee: 110.2080°
revolutions per day: 13.77702054
mean anomaly at epoch: 250.0312°
orbit number at epoch: 59052

The dashed part of the orbit path shows where the satellite is in the earth's shadow,  

DLR